contact:dominique.lefevre@mio.osupytheas.fr, maurice.libes@osupytheas.fr, didier.mallarino@osupytheas.fr
Project:EMSO http://www.emso-fr.org/EMSO-France
Depth: 2436.0 m
Title:EMSO Ligure Ouest : Data MII capteur CSTAR
DateTime,Latitude,Longitude,Instrument_Serial,Reference_Counts,Signal_Counts,Corrected_Signal_raw_counts,Calculated_Beam_c_inverse_meters,Internal_thermistor_counts
DateTime,Latitude,Longitude,Instrument_Serial,Reference_Counts,Signal_Counts,Corrected_Signal_raw_counts,Calculated_Beam_c_inverse_meters,Internal_thermistor_counts
2022-05-17T00:00:25,42.805,6.029,CST-1368DR,4747,5381,12086,01.025,551
2022-05-17T00:03:27,42.805,6.029,CST-1368DR,4747,5380,12083,01.026,551
2022-05-17T00:06:28,42.805,6.029,CST-1368DR,4747,5385,12096,01.022,551
2022-05-17T00:09:30,42.805,6.029,CST-1368DR,4747,5382,12088,01.024,551
2022-05-17T00:12:31,42.805,6.029,CST-1368DR,4747,5383,12091,01.023,551
2022-05-17T00:15:33,42.805,6.029,CST-1368DR,4747,5382,12089,01.024,551
2022-05-17T00:18:34,42.805,6.029,CST-1368DR,4747,5382,12089,01.024,551
2022-05-17T00:21:36,42.805,6.029,CST-1368DR,4747,5382,12088,01.024,551
2022-05-17T00:24:38,42.805,6.029,CST-1368DR,4747,5385,12094,01.022,551
2022-05-17T00:27:39,42.805,6.029,CST-1368DR,4747,5384,12093,01.023,551
2022-05-17T00:30:41,42.805,6.029,CST-1368DR,4747,5384,12092,01.023,551
2022-05-17T00:33:42,42.805,6.029,CST-1368DR,4747,5386,12096,01.022,551
2022-05-17T00:36:44,42.805,6.029,CST-1368DR,4747,5385,12095,01.022,551
2022-05-17T00:39:45,42.805,6.029,CST-1368DR,4747,5387,12100,01.020,551
2022-05-17T00:42:47,42.805,6.029,CST-1368DR,4747,5386,12097,01.021,551
2022-05-17T00:45:49,42.805,6.029,CST-1368DR,4747,5388,12101,01.020,551
2022-05-17T00:48:50,42.805,6.029,CST-1368DR,4747,5385,12095,01.022,551
2022-05-17T00:51:52,42.805,6.029,CST-1368DR,4747,5387,12100,01.020,551
2022-05-17T00:54:53,42.805,6.029,CST-1368DR,4747,5384,12092,01.023,551
2022-05-17T00:57:55,42.805,6.029,CST-1368DR,4747,5386,12097,01.021,551
2022-05-17T01:00:57,42.805,6.029,CST-1368DR,4747,5387,12099,01.021,551
2022-05-17T01:03:58,42.805,6.029,CST-1368DR,4747,5386,12098,01.021,551
2022-05-17T01:07:00,42.805,6.029,CST-1368DR,4747,5385,12094,01.022,551
2022-05-17T01:10:01,42.805,6.029,CST-1368DR,4747,5385,12095,01.022,551
2022-05-17T01:13:03,42.805,6.029,CST-1368DR,4747,5385,12095,01.022,551
2022-05-17T01:16:04,42.805,6.029,CST-1368DR,4747,5384,12093,01.023,551
2022-05-17T01:19:06,42.805,6.029,CST-1368DR,4747,5386,12097,01.021,551
2022-05-17T01:22:08,42.805,6.029,CST-1368DR,4747,5387,12100,01.020,551
2022-05-17T01:25:09,42.805,6.029,CST-1368DR,4747,5389,12103,01.019,551
2022-05-17T01:28:11,42.805,6.029,CST-1368DR,4747,5388,12101,01.020,551
2022-05-17T01:31:12,42.805,6.029,CST-1368DR,4747,5387,12099,01.021,551
2022-05-17T01:34:14,42.805,6.029,CST-1368DR,4747,5385,12096,01.022,551
2022-05-17T01:37:15,42.805,6.029,CST-1368DR,4747,5385,12096,01.022,551
2022-05-17T01:40:17,42.805,6.029,CST-1368DR,4747,5386,12097,01.021,551
2022-05-17T01:43:19,42.805,6.029,CST-1368DR,4747,5387,12100,01.020,551
2022-05-17T01:46:20,42.805,6.029,CST-1368DR,4747,5386,12096,01.022,551
2022-05-17T01:49:22,42.805,6.029,CST-1368DR,4747,5386,12098,01.021,551
2022-05-17T01:52:23,42.805,6.029,CST-1368DR,4747,5386,12098,01.021,551
2022-05-17T01:55:25,42.805,6.029,CST-1368DR,4747,5387,12100,01.020,551
2022-05-17T01:58:27,42.805,6.029,CST-1368DR,4747,5385,12096,01.022,551
2022-05-17T02:01:28,42.805,6.029,CST-1368DR,4746,5360,12042,01.040,551
2022-05-17T02:04:30,42.805,6.029,CST-1368DR,4746,5360,12040,01.040,551
2022-05-17T02:07:31,42.805,6.029,CST-1368DR,4746,5363,12048,01.038,551
2022-05-17T02:10:33,42.805,6.029,CST-1368DR,4746,5358,12036,01.042,551
2022-05-17T02:13:34,42.805,6.029,CST-1368DR,4746,5361,12044,01.039,551
2022-05-17T02:16:36,42.805,6.029,CST-1368DR,4746,5363,12048,01.038,551
2022-05-17T02:19:38,42.805,6.029,CST-1368DR,4746,5363,12048,01.038,551
2022-05-17T02:22:39,42.805,6.029,CST-1368DR,4746,5363,12049,01.037,551
2022-05-17T02:25:41,42.805,6.029,CST-1368DR,4746,5360,12042,01.040,551
2022-05-17T02:28:42,42.805,6.029,CST-1368DR,4746,5361,12044,01.039,551
2022-05-17T02:31:44,42.805,6.029,CST-1368DR,4746,5354,12027,01.045,551
2022-05-17T02:34:46,42.805,6.029,CST-1368DR,4746,5363,12049,01.037,551
2022-05-17T02:37:47,42.805,6.029,CST-1368DR,4746,5364,12050,01.037,551
2022-05-17T02:40:49,42.805,6.029,CST-1368DR,4746,5362,12045,01.039,551
2022-05-17T02:43:50,42.805,6.029,CST-1368DR,4746,5363,12049,01.037,551
2022-05-17T02:46:52,42.805,6.029,CST-1368DR,4746,5364,12049,01.037,551
2022-05-17T02:49:53,42.805,6.029,CST-1368DR,4746,5363,12048,01.038,551
2022-05-17T02:52:55,42.805,6.029,CST-1368DR,4746,5365,12052,01.036,551
2022-05-17T02:55:57,42.805,6.029,CST-1368DR,4746,5365,12053,01.036,551
2022-05-17T02:58:58,42.805,6.029,CST-1368DR,4746,5365,12051,01.037,551
2022-05-17T03:02:00,42.805,6.029,CST-1368DR,4746,5365,12052,01.036,551
2022-05-17T03:05:01,42.805,6.029,CST-1368DR,4746,5344,12006,01.052,551
2022-05-17T03:08:03,42.805,6.029,CST-1368DR,4746,5367,12056,01.035,551
2022-05-17T03:11:04,42.805,6.029,CST-1368DR,4746,5367,12056,01.035,551
2022-05-17T03:14:06,42.805,6.029,CST-1368DR,4746,5363,12048,01.038,551
2022-05-17T03:17:08,42.805,6.029,CST-1368DR,4746,5365,12051,01.037,551
2022-05-17T03:20:09,42.805,6.029,CST-1368DR,4746,5365,12053,01.036,551
2022-05-17T03:23:11,42.805,6.029,CST-1368DR,4746,5361,12042,01.040,551
2022-05-17T03:26:12,42.805,6.029,CST-1368DR,4746,5361,12042,01.040,551
2022-05-17T03:29:14,42.805,6.029,CST-1368DR,4746,5365,12053,01.036,551
2022-05-17T03:32:16,42.805,6.029,CST-1368DR,4746,5364,12051,01.037,551
2022-05-17T03:35:17,42.805,6.029,CST-1368DR,4746,5362,12045,01.039,551
2022-05-17T03:38:19,42.805,6.029,CST-1368DR,4746,5365,12051,01.037,551
2022-05-17T03:41:20,42.805,6.029,CST-1368DR,4746,5365,12052,01.036,551
2022-05-17T03:44:22,42.805,6.029,CST-1368DR,4746,5364,12049,01.037,551
2022-05-17T03:47:23,42.805,6.029,CST-1368DR,4746,5365,12052,01.036,551
2022-05-17T03:50:25,42.805,6.029,CST-1368DR,4746,5362,12045,01.039,551
2022-05-17T03:53:27,42.805,6.029,CST-1368DR,4746,5367,12057,01.035,551
2022-05-17T03:56:28,42.805,6.029,CST-1368DR,4746,5361,12044,01.039,551
2022-05-17T03:59:30,42.805,6.029,CST-1368DR,4746,5365,12053,01.036,551
2022-05-17T04:02:31,42.805,6.029,CST-1368DR,4746,5365,12051,01.037,551
2022-05-17T04:05:33,42.805,6.029,CST-1368DR,4746,5364,12049,01.037,551
2022-05-17T04:08:34,42.805,6.029,CST-1368DR,4746,5363,12047,01.038,551
2022-05-17T04:11:36,42.805,6.029,CST-1368DR,4746,5360,12042,01.040,551
2022-05-17T04:14:38,42.805,6.029,CST-1368DR,4746,5364,12051,01.037,551
2022-05-17T04:17:39,42.805,6.029,CST-1368DR,4746,5362,12045,01.039,551
2022-05-17T04:20:41,42.805,6.029,CST-1368DR,4746,5361,12044,01.039,551
2022-05-17T04:23:42,42.805,6.029,CST-1368DR,4746,5364,12049,01.037,551
2022-05-17T04:26:44,42.805,6.029,CST-1368DR,4746,5357,12034,01.042,551
2022-05-17T04:29:46,42.805,6.029,CST-1368DR,4746,5363,12048,01.038,551
2022-05-17T04:32:47,42.805,6.029,CST-1368DR,4746,5364,12049,01.037,551
2022-05-17T04:35:49,42.805,6.029,CST-1368DR,4746,5367,12056,01.035,551
2022-05-17T04:38:50,42.805,6.029,CST-1368DR,4746,5367,12058,01.034,551
2022-05-17T04:41:52,42.805,6.029,CST-1368DR,4746,5361,12044,01.039,551
2022-05-17T04:44:53,42.805,6.029,CST-1368DR,4746,5362,12046,01.038,551
2022-05-17T04:47:55,42.805,6.029,CST-1368DR,4746,5363,12048,01.038,551
2022-05-17T04:50:57,42.805,6.029,CST-1368DR,4746,5364,12049,01.037,551
2022-05-17T04:53:58,42.805,6.029,CST-1368DR,4746,5365,12053,01.036,551
2022-05-17T04:57:00,42.805,6.029,CST-1368DR,4746,5363,12047,01.038,551
2022-05-17T05:00:01,42.805,6.029,CST-1368DR,4746,5362,12045,01.039,551
2022-05-17T05:03:03,42.805,6.029,CST-1368DR,4746,5363,12048,01.038,551
2022-05-17T05:06:04,42.805,6.029,CST-1368DR,4746,5363,12048,01.038,551
2022-05-17T05:09:06,42.805,6.029,CST-1368DR,4746,5359,12038,01.041,551
2022-05-17T05:12:08,42.805,6.029,CST-1368DR,4746,5363,12048,01.038,551
2022-05-17T05:15:09,42.805,6.029,CST-1368DR,4746,5361,12042,01.040,551
2022-05-17T05:18:11,42.805,6.029,CST-1368DR,4746,5362,12045,01.039,551
2022-05-17T05:21:12,42.805,6.029,CST-1368DR,4746,5365,12053,01.036,551
2022-05-17T05:24:14,42.805,6.029,CST-1368DR,4746,5351,12021,01.047,551
2022-05-17T05:27:15,42.805,6.029,CST-1368DR,4746,5364,12050,01.037,551
2022-05-17T05:30:17,42.805,6.029,CST-1368DR,4746,5364,12049,01.037,551
2022-05-17T05:33:19,42.805,6.029,CST-1368DR,4746,5361,12043,01.039,551
2022-05-17T05:36:20,42.805,6.029,CST-1368DR,4746,5360,12042,01.040,550
2022-05-17T05:39:22,42.805,6.029,CST-1368DR,4746,5364,12050,01.037,551
2022-05-17T05:42:23,42.805,6.029,CST-1368DR,4746,5365,12053,01.036,551
2022-05-17T05:45:25,42.805,6.029,CST-1368DR,4746,5362,12045,01.039,551
2022-05-17T05:48:27,42.805,6.029,CST-1368DR,4746,5361,12043,01.039,551
2022-05-17T05:51:28,42.805,6.029,CST-1368DR,4746,5364,12050,01.037,551
2022-05-17T05:54:30,42.805,6.029,CST-1368DR,4746,5360,12042,01.040,551
2022-05-17T05:57:31,42.805,6.029,CST-1368DR,4746,5361,12044,01.039,551
2022-05-17T06:00:33,42.805,6.029,CST-1368DR,4746,5364,12049,01.037,551
2022-05-17T06:03:34,42.805,6.029,CST-1368DR,4746,5364,12051,01.037,551
2022-05-17T06:06:36,42.805,6.029,CST-1368DR,4746,5364,12051,01.037,551
2022-05-17T06:09:38,42.805,6.029,CST-1368DR,4746,5362,12046,01.038,551
2022-05-17T06:12:39,42.805,6.029,CST-1368DR,4746,5363,12049,01.037,551
2022-05-17T06:15:41,42.805,6.029,CST-1368DR,4746,5364,12051,01.037,551
2022-05-17T06:18:42,42.805,6.029,CST-1368DR,4746,5366,12054,01.036,551
2022-05-17T06:21:44,42.805,6.029,CST-1368DR,4746,5364,12050,01.037,551
2022-05-17T06:24:46,42.805,6.029,CST-1368DR,4746,5365,12051,01.037,551
2022-05-17T06:27:47,42.805,6.029,CST-1368DR,4746,5365,12053,01.036,551
2022-05-17T06:30:49,42.805,6.029,CST-1368DR,4746,5364,12050,01.037,551
2022-05-17T06:33:50,42.805,6.029,CST-1368DR,4746,5367,12057,01.035,551
2022-05-17T06:36:52,42.805,6.029,CST-1368DR,4746,5366,12055,01.035,551
2022-05-17T06:39:53,42.805,6.029,CST-1368DR,4746,5358,12036,01.042,551
2022-05-17T06:42:55,42.805,6.029,CST-1368DR,4746,5361,12043,01.039,551
2022-05-17T06:45:57,42.805,6.029,CST-1368DR,4746,5365,12051,01.037,551
2022-05-17T06:48:58,42.805,6.029,CST-1368DR,4746,5362,12046,01.038,551
2022-05-17T06:52:00,42.805,6.029,CST-1368DR,4746,5363,12049,01.037,551
2022-05-17T06:55:01,42.805,6.029,CST-1368DR,4746,5363,12048,01.038,551
2022-05-17T06:58:03,42.805,6.029,CST-1368DR,4746,5362,12046,01.038,551
2022-05-17T07:01:04,42.805,6.029,CST-1368DR,4746,5359,12039,01.041,551
2022-05-17T07:04:06,42.805,6.029,CST-1368DR,4746,5363,12048,01.038,551
2022-05-17T07:07:08,42.805,6.029,CST-1368DR,4746,5363,12049,01.037,551
2022-05-17T07:10:09,42.805,6.029,CST-1368DR,4746,5364,12050,01.037,551
2022-05-17T07:13:11,42.805,6.029,CST-1368DR,4746,5362,12045,01.039,551
2022-05-17T07:16:12,42.805,6.029,CST-1368DR,4746,5361,12044,01.039,551
2022-05-17T07:19:14,42.805,6.029,CST-1368DR,4746,5363,12049,01.037,551
2022-05-17T07:22:16,42.805,6.029,CST-1368DR,4746,5365,12053,01.036,551
2022-05-17T07:25:17,42.805,6.029,CST-1368DR,4746,5364,12050,01.037,551
2022-05-17T07:28:19,42.805,6.029,CST-1368DR,4746,5362,12046,01.038,551
2022-05-17T07:31:20,42.805,6.029,CST-1368DR,4746,5365,12053,01.036,551
2022-05-17T07:34:22,42.805,6.029,CST-1368DR,4746,5363,12048,01.038,551
2022-05-17T07:37:23,42.805,6.029,CST-1368DR,4746,5363,12047,01.038,551
2022-05-17T07:40:25,42.805,6.029,CST-1368DR,4746,5363,12047,01.038,551
2022-05-17T07:43:27,42.805,6.029,CST-1368DR,4746,5364,12051,01.037,551
2022-05-17T07:46:28,42.805,6.029,CST-1368DR,4746,5366,12055,01.035,551
2022-05-17T07:49:30,42.805,6.029,CST-1368DR,4746,5364,12050,01.037,551
2022-05-17T07:52:31,42.805,6.029,CST-1368DR,4746,5366,12054,01.036,551
2022-05-17T07:55:33,42.805,6.029,CST-1368DR,4746,5369,12061,01.033,551
2022-05-17T07:58:35,42.805,6.029,CST-1368DR,4746,5367,12057,01.035,551
2022-05-17T08:01:36,42.805,6.029,CST-1368DR,4746,5367,12056,01.035,551
2022-05-17T08:04:38,42.805,6.029,CST-1368DR,4746,5364,12049,01.037,551
2022-05-17T08:07:39,42.805,6.029,CST-1368DR,4746,5365,12053,01.036,551
2022-05-17T08:10:41,42.805,6.029,CST-1368DR,4746,5367,12057,01.035,551
2022-05-17T08:13:42,42.805,6.029,CST-1368DR,4746,5366,12055,01.035,551
2022-05-17T08:16:44,42.805,6.029,CST-1368DR,4746,5366,12054,01.036,551
2022-05-17T08:19:46,42.805,6.029,CST-1368DR,4746,5365,12053,01.036,551
2022-05-17T08:22:47,42.805,6.029,CST-1368DR,4746,5367,12058,01.034,551
2022-05-17T08:25:49,42.805,6.029,CST-1368DR,4746,5367,12057,01.035,551
2022-05-17T08:28:50,42.805,6.029,CST-1368DR,4746,5366,12055,01.035,551
2022-05-17T08:31:52,42.805,6.029,CST-1368DR,4746,5367,12058,01.034,551
2022-05-17T08:34:53,42.805,6.029,CST-1368DR,4746,5369,12061,01.033,551
2022-05-17T08:37:55,42.805,6.029,CST-1368DR,4746,5367,12056,01.035,551
2022-05-17T08:40:57,42.805,6.029,CST-1368DR,4746,5367,12057,01.035,551
2022-05-17T08:43:58,42.805,6.029,CST-1368DR,4746,5368,12060,01.034,551
2022-05-17T08:47:00,42.805,6.029,CST-1368DR,4746,5368,12059,01.034,551
2022-05-17T08:50:01,42.805,6.029,CST-1368DR,4746,5365,12053,01.036,551
2022-05-17T08:53:03,42.805,6.029,CST-1368DR,4746,5364,12051,01.037,551
2022-05-17T08:56:05,42.805,6.029,CST-1368DR,4746,5369,12062,01.033,551
2022-05-17T08:59:06,42.805,6.029,CST-1368DR,4746,5367,12057,01.035,551
2022-05-17T09:02:08,42.805,6.029,CST-1368DR,4746,5370,12063,01.033,551
2022-05-17T09:05:09,42.805,6.029,CST-1368DR,4746,5368,12060,01.034,551
2022-05-17T09:08:11,42.805,6.029,CST-1368DR,4746,5368,12059,01.034,551
2022-05-17T09:11:12,42.805,6.029,CST-1368DR,4746,5367,12056,01.035,551
2022-05-17T09:14:14,42.805,6.029,CST-1368DR,4746,5369,12060,01.034,551
2022-05-17T09:17:16,42.805,6.029,CST-1368DR,4746,5368,12060,01.034,551
2022-05-17T09:20:17,42.805,6.029,CST-1368DR,4746,5367,12056,01.035,551
2022-05-17T09:23:19,42.805,6.029,CST-1368DR,4746,5367,12057,01.035,551
2022-05-17T09:26:20,42.805,6.029,CST-1368DR,4746,5365,12053,01.036,551
2022-05-17T09:29:22,42.805,6.029,CST-1368DR,4746,5369,12062,01.033,551
2022-05-17T09:32:24,42.805,6.029,CST-1368DR,4746,5367,12057,01.035,551
2022-05-17T09:35:25,42.805,6.029,CST-1368DR,4746,5363,12049,01.037,551
2022-05-17T09:38:27,42.805,6.029,CST-1368DR,4746,5369,12060,01.034,551
2022-05-17T09:41:28,42.805,6.029,CST-1368DR,4746,5368,12059,01.034,551
2022-05-17T09:44:30,42.805,6.029,CST-1368DR,4746,5370,12063,01.033,551
2022-05-17T09:47:31,42.805,6.029,CST-1368DR,4746,5368,12060,01.034,551
2022-05-17T09:50:33,42.805,6.029,CST-1368DR,4746,5368,12059,01.034,551
2022-05-17T09:53:35,42.805,6.029,CST-1368DR,4746,5368,12058,01.034,551
2022-05-17T09:56:36,42.805,6.029,CST-1368DR,4746,5368,12060,01.034,551
2022-05-17T09:59:38,42.805,6.029,CST-1368DR,4746,5367,12057,01.035,551
2022-05-17T10:02:39,42.805,6.029,CST-1368DR,4746,5369,12060,01.034,551
2022-05-17T10:05:41,42.805,6.029,CST-1368DR,4746,5369,12060,01.034,551
2022-05-17T10:08:42,42.805,6.029,CST-1368DR,4746,5369,12062,01.033,551
2022-05-17T10:11:44,42.805,6.029,CST-1368DR,4746,5369,12061,01.033,551
2022-05-17T10:14:46,42.805,6.029,CST-1368DR,4746,5367,12057,01.035,551
2022-05-17T10:17:47,42.805,6.029,CST-1368DR,4746,5369,12062,01.033,551
2022-05-17T10:20:49,42.805,6.029,CST-1368DR,4746,5370,12063,01.033,551
2022-05-17T10:23:50,42.805,6.029,CST-1368DR,4746,5370,12064,01.032,551
2022-05-17T10:26:52,42.805,6.029,CST-1368DR,4746,5368,12058,01.034,551
2022-05-17T10:29:54,42.805,6.029,CST-1368DR,4746,5369,12061,01.033,551
2022-05-17T10:32:55,42.805,6.029,CST-1368DR,4746,5362,12045,01.039,551
2022-05-17T10:35:57,42.805,6.029,CST-1368DR,4746,5369,12062,01.033,551
2022-05-17T10:38:58,42.805,6.029,CST-1368DR,4746,5369,12060,01.034,551
2022-05-17T10:42:00,42.805,6.029,CST-1368DR,4746,5368,12059,01.034,551
2022-05-17T10:45:01,42.805,6.029,CST-1368DR,4746,5371,12065,01.032,551
2022-05-17T10:48:03,42.805,6.029,CST-1368DR,4746,5369,12061,01.033,551
2022-05-17T10:51:05,42.805,6.029,CST-1368DR,4746,5370,12063,01.033,551
2022-05-17T10:54:06,42.805,6.029,CST-1368DR,4746,5367,12057,01.035,551
2022-05-17T10:57:08,42.805,6.029,CST-1368DR,4746,5369,12060,01.034,551
2022-05-17T11:00:09,42.805,6.029,CST-1368DR,4746,5368,12060,01.034,551
2022-05-17T11:03:11,42.805,6.029,CST-1368DR,4746,5367,12058,01.034,551
2022-05-17T11:06:13,42.805,6.029,CST-1368DR,4746,5370,12064,01.032,551
2022-05-17T11:09:14,42.805,6.029,CST-1368DR,4746,5371,12067,01.031,551
2022-05-17T11:12:16,42.805,6.029,CST-1368DR,4746,5371,12065,01.032,551
2022-05-17T11:15:17,42.805,6.029,CST-1368DR,4746,5370,12064,01.032,551
2022-05-17T11:18:19,42.805,6.029,CST-1368DR,4746,5370,12064,01.032,551
2022-05-17T11:21:20,42.805,6.029,CST-1368DR,4746,5371,12066,01.032,551
2022-05-17T11:24:22,42.805,6.029,CST-1368DR,4746,5371,12067,01.031,551
2022-05-17T11:27:24,42.805,6.029,CST-1368DR,4746,5371,12065,01.032,551
2022-05-17T11:30:25,42.805,6.029,CST-1368DR,4746,5370,12064,01.032,551
2022-05-17T11:33:27,42.805,6.029,CST-1368DR,4746,5372,12068,01.031,551
2022-05-17T11:36:28,42.805,6.029,CST-1368DR,4746,5373,12069,01.031,551
2022-05-17T11:39:30,42.805,6.029,CST-1368DR,4746,5368,12060,01.034,551
2022-05-17T11:42:31,42.805,6.029,CST-1368DR,4746,5369,12061,01.033,551
2022-05-17T11:45:33,42.805,6.029,CST-1368DR,4746,5371,12066,01.032,551
2022-05-17T11:48:35,42.805,6.029,CST-1368DR,4746,5371,12067,01.031,551
2022-05-17T11:51:36,42.805,6.029,CST-1368DR,4746,5371,12065,01.032,551
2022-05-17T11:54:38,42.805,6.029,CST-1368DR,4746,5371,12066,01.032,550
2022-05-17T11:57:39,42.805,6.029,CST-1368DR,4746,5372,12068,01.031,551
2022-05-17T12:00:41,42.805,6.029,CST-1368DR,4746,5371,12066,01.032,551
2022-05-17T12:03:43,42.805,6.029,CST-1368DR,4746,5367,12057,01.035,551
2022-05-17T12:06:44,42.805,6.029,CST-1368DR,4746,5371,12065,01.032,551
2022-05-17T12:09:46,42.805,6.029,CST-1368DR,4746,5370,12064,01.032,551
2022-05-17T12:12:47,42.805,6.029,CST-1368DR,4746,5371,12066,01.032,551
2022-05-17T12:15:49,42.805,6.029,CST-1368DR,4746,5370,12064,01.032,551
2022-05-17T12:18:50,42.805,6.029,CST-1368DR,4746,5367,12058,01.034,551
2022-05-17T12:21:52,42.805,6.029,CST-1368DR,4746,5370,12064,01.032,551
2022-05-17T12:24:54,42.805,6.029,CST-1368DR,4746,5368,12060,01.034,551
2022-05-17T12:27:55,42.805,6.029,CST-1368DR,4746,5370,12063,01.033,551
2022-05-17T12:30:57,42.805,6.029,CST-1368DR,4746,5370,12063,01.033,551
2022-05-17T12:33:58,42.805,6.029,CST-1368DR,4746,5371,12065,01.032,551
2022-05-17T12:37:00,42.805,6.029,CST-1368DR,4746,5370,12064,01.032,551
2022-05-17T12:40:01,42.805,6.029,CST-1368DR,4746,5370,12064,01.032,551
2022-05-17T12:43:03,42.805,6.029,CST-1368DR,4746,5370,12063,01.033,551
2022-05-17T12:46:05,42.805,6.029,CST-1368DR,4746,5370,12063,01.033,551
2022-05-17T12:49:06,42.805,6.029,CST-1368DR,4746,5370,12063,01.033,551
2022-05-17T12:52:08,42.805,6.029,CST-1368DR,4746,5367,12058,01.034,550
2022-05-17T12:55:09,42.805,6.029,CST-1368DR,4746,5371,12065,01.032,551
2022-05-17T12:58:11,42.805,6.029,CST-1368DR,4746,5370,12063,01.033,551
2022-05-17T13:01:13,42.805,6.029,CST-1368DR,4746,5370,12064,01.032,551
2022-05-17T13:04:14,42.805,6.029,CST-1368DR,4746,5366,12055,01.035,551
2022-05-17T13:07:16,42.805,6.029,CST-1368DR,4745,5368,12061,01.033,551
2022-05-17T13:10:17,42.805,6.029,CST-1368DR,4745,5367,12060,01.034,551
2022-05-17T13:13:19,42.805,6.029,CST-1368DR,4746,5368,12060,01.034,551
2022-05-17T13:16:20,42.805,6.029,CST-1368DR,4746,5367,12057,01.035,551
2022-05-17T13:19:22,42.805,6.029,CST-1368DR,4746,5370,12063,01.033,551
2022-05-17T13:22:24,42.805,6.029,CST-1368DR,4746,5370,12063,01.033,551
2022-05-17T13:25:25,42.805,6.029,CST-1368DR,4745,5368,12061,01.033,551
2022-05-17T13:28:27,42.805,6.029,CST-1368DR,4746,5368,12059,01.034,551
2022-05-17T13:31:28,42.805,6.029,CST-1368DR,4746,5366,12055,01.035,551
2022-05-17T13:34:30,42.805,6.029,CST-1368DR,4746,5367,12056,01.035,551
2022-05-17T13:37:31,42.805,6.029,CST-1368DR,4745,5367,12060,01.034,551
2022-05-17T13:40:33,42.805,6.029,CST-1368DR,4745,5367,12059,01.034,551
2022-05-17T13:43:35,42.805,6.029,CST-1368DR,4746,5366,12054,01.036,551
2022-05-17T13:46:36,42.805,6.029,CST-1368DR,4745,5358,12039,01.041,551
2022-05-17T13:49:38,42.805,6.029,CST-1368DR,4746,5365,12053,01.036,551
2022-05-17T13:52:39,42.805,6.029,CST-1368DR,4746,5364,12050,01.037,551
2022-05-17T13:55:41,42.805,6.029,CST-1368DR,4746,5367,12058,01.034,551
2022-05-17T13:58:43,42.805,6.029,CST-1368DR,4745,5367,12060,01.034,551
2022-05-17T14:01:44,42.805,6.029,CST-1368DR,4745,5364,12052,01.036,551
2022-05-17T14:04:46,42.805,6.029,CST-1368DR,4745,5365,12056,01.035,551
2022-05-17T14:07:47,42.805,6.029,CST-1368DR,4746,5368,12059,01.034,551
2022-05-17T14:10:49,42.805,6.029,CST-1368DR,4746,5368,12059,01.034,551
2022-05-17T14:13:50,42.805,6.029,CST-1368DR,4746,5367,12057,01.035,551
2022-05-17T14:16:52,42.805,6.029,CST-1368DR,4745,5365,12056,01.035,551
2022-05-17T14:19:54,42.805,6.029,CST-1368DR,4746,5363,12048,01.038,551
2022-05-17T14:22:55,42.805,6.029,CST-1368DR,4746,5368,12059,01.034,551
2022-05-17T14:25:57,42.805,6.029,CST-1368DR,4746,5367,12058,01.034,551
2022-05-17T14:28:58,42.805,6.029,CST-1368DR,4745,5368,12062,01.033,551
2022-05-17T14:32:00,42.805,6.029,CST-1368DR,4745,5366,12058,01.034,551
2022-05-17T14:35:01,42.805,6.029,CST-1368DR,4746,5368,12058,01.034,551
2022-05-17T14:38:03,42.805,6.029,CST-1368DR,4746,5368,12058,01.034,551
2022-05-17T14:41:05,42.805,6.029,CST-1368DR,4746,5360,12041,01.040,551
2022-05-17T14:44:06,42.805,6.029,CST-1368DR,4746,5369,12061,01.033,551
2022-05-17T14:47:08,42.805,6.029,CST-1368DR,4746,5371,12065,01.032,551
2022-05-17T14:50:09,42.805,6.029,CST-1368DR,4745,5370,12066,01.032,551
2022-05-17T14:53:11,42.805,6.029,CST-1368DR,4745,5365,12056,01.035,551
2022-05-17T14:56:13,42.805,6.029,CST-1368DR,4746,5367,12058,01.034,551
2022-05-17T14:59:14,42.805,6.029,CST-1368DR,4746,5368,12058,01.034,551
2022-05-17T15:02:16,42.805,6.029,CST-1368DR,4745,5366,12057,01.035,551
2022-05-17T15:05:17,42.805,6.029,CST-1368DR,4745,5369,12063,01.033,551
2022-05-17T15:08:19,42.805,6.029,CST-1368DR,4746,5369,12061,01.033,551
2022-05-17T15:11:20,42.805,6.029,CST-1368DR,4746,5368,12058,01.034,551
2022-05-17T15:14:22,42.805,6.029,CST-1368DR,4746,5367,12056,01.035,551
2022-05-17T15:17:24,42.805,6.029,CST-1368DR,4745,5363,12051,01.037,551
2022-05-17T15:20:25,42.805,6.029,CST-1368DR,4745,5368,12061,01.033,551
2022-05-17T15:23:27,42.805,6.029,CST-1368DR,4745,5366,12057,01.035,551
2022-05-17T15:26:28,42.805,6.029,CST-1368DR,4746,5364,12050,01.037,551
2022-05-17T15:29:30,42.805,6.029,CST-1368DR,4746,5369,12061,01.033,551
2022-05-17T15:32:32,42.805,6.029,CST-1368DR,4746,5369,12062,01.033,551
2022-05-17T15:35:33,42.805,6.029,CST-1368DR,4745,5365,12055,01.035,551
2022-05-17T15:38:35,42.805,6.029,CST-1368DR,4745,5366,12058,01.034,551
2022-05-17T15:41:36,42.805,6.029,CST-1368DR,4745,5365,12055,01.035,551
2022-05-17T15:44:38,42.805,6.029,CST-1368DR,4745,5366,12058,01.034,551
2022-05-17T15:47:39,42.805,6.029,CST-1368DR,4745,5367,12058,01.034,551
2022-05-17T15:50:41,42.805,6.029,CST-1368DR,4745,5368,12061,01.033,551
2022-05-17T15:53:43,42.805,6.029,CST-1368DR,4745,5368,12062,01.033,551
2022-05-17T15:56:44,42.805,6.029,CST-1368DR,4745,5367,12060,01.034,551
2022-05-17T15:59:46,42.805,6.029,CST-1368DR,4745,5365,12054,01.036,551
2022-05-17T16:02:47,42.805,6.029,CST-1368DR,4745,5367,12058,01.034,551
2022-05-17T16:05:49,42.805,6.029,CST-1368DR,4745,5368,12061,01.033,551
2022-05-17T16:08:50,42.805,6.029,CST-1368DR,4745,5367,12060,01.034,551
2022-05-17T16:11:52,42.805,6.029,CST-1368DR,4745,5364,12053,01.036,551
2022-05-17T16:14:54,42.805,6.029,CST-1368DR,4745,5367,12060,01.034,551
2022-05-17T16:17:55,42.805,6.029,CST-1368DR,4745,5368,12061,01.033,551
2022-05-17T16:20:57,42.805,6.029,CST-1368DR,4745,5365,12055,01.035,551
2022-05-17T16:23:58,42.805,6.029,CST-1368DR,4745,5365,12056,01.035,551
2022-05-17T16:27:00,42.805,6.029,CST-1368DR,4745,5367,12058,01.034,551
2022-05-17T16:30:02,42.805,6.029,CST-1368DR,4745,5369,12063,01.033,551
2022-05-17T16:33:03,42.805,6.029,CST-1368DR,4745,5362,12047,01.038,551
2022-05-17T16:36:05,42.805,6.029,CST-1368DR,4745,5367,12058,01.034,551